Temp
-5 -5 -5 -5 -5 -5 -5 -5 -5 -5 -6 -6 -6 -5 -6 -5 -6 -5 -6 -5 -5 -5 -5 -5 -5 -5 -5 -4 -5 -4 -5 -5 -6 -5 -5 -4 -4 -4 -5 -5 -5 -5 -5 -5 -5
-5 -5 -5 -5 -5 -5 -5 -4 -5 -5 -5 -5 -6 -6 -5 -6 -6 -6 -6 -5 -6 -5 -5 -5 -5 -5 -5 -4 -5 -5 -4 -6 -6 -6 -5 -4 -5 -4 -4 -5 -4 -5 -5 -5 -5
-4 -4 -5 -5 -4 -4 -4 -4 -4 -4 -4 -4 -5 -5 -6 -6 -6 -6 -6 -6 -5 -5 -5 -5 -5 -5 -5 -5 -5 -5 -5 -5 -5 -5 -5 -5 -5 -5 -4 -4 -4 -4 -4 -5 -5
-5 -4 -4 -4 -4 -4 -4 -4 -4 -4 -4 -4 -5 -5 -5 -5 -6 -6 -6 -6 -6 -5 -6 -5 -6 -6 -5 -5 -5 -4 -4 -4 -6 -5 -5 -5 -6 -5 -5 -4 -4 -5 -4 -4 -5
-5 -5 -5 -4 -4 -4 -4 -4 -4 -4 -4 -4 -4 -5 -5 -5 -6 -6 -6 -6 -6 -6 -6 -5 -6 -6 -5 -5 -5 -5 -5 -4 -5 -5 -5 -6 -6 -6 -6 -5 -4 -4 -4 -4 -4
-5 -5 -5 -5 -4 -4 -4 -4 -4 -4 -4 -4 -5 -5 -5 -6 -6 -6 -6 -6 -6 -6 -6 -6 -6 -6 -6 -6 -5 -5 -5 -4 -5 -6 -5 -5 -6 -6 -5 -5 -4 -4 -4 -4 -4
-5 -5 -5 -5 -5 -5 -4 -4 -4 -4 -4 -5 -5 -5 -5 -6 -6 -6 -6 -6 -6 -6 -6 -6 -6 -5 -6 -6 -6 -5 -6 -6 -5 -5 -6 -6 -6 -5 -5 -5 -5 -4 -4 -4 -3
-6 -5 -5 -5 -5 -5 -5 -4 -5 -5 -5 -5 -5 -6 -6 -6 -7 -6 -6 -6 -6 -6 -6 -6 -6 -5 -5 -6 -6 -7 -6 -5 -5 -6 -5 -5 -5 -6 -5 -6 -5 -5 -4 -4 -3
-6 -6 -6 -5 -5 -5 -5 -5 -5 -5 -5 -5 -6 -6 -6 -6 -7 -7 -7 -7 -7 -7 -6 -6 -6 -6 -5 -6 -6 -6 -7 -6 -7 -6 -6 -6 -6 -6 -5 -6 -6 -5 -5 -4 -4
-6 -7 -6 -6 -6 -5 -5 -5 -5 -5 -6 -6 -6 -6 -7 -7 -7 -7 -7 -7 -7 -7 -6 -6 -6 -7 -6 -6 -6 -6 -7 -8 -7 -6 -6 -6 -5 -6 -5 -5 -7 -6 -5 -4 -4
-7 -7 -7 -7 -6 -6 -6 -6 -6 -6 -6 -7 -7 -7 -7 -7 -7 -7 -8 -8 -7 -7 -7 -6 -6 -7 -7 -6 -6 -7 -7 -8 -8 -7 -6 -6 -6 -6 -5 -5 -6 -6 -5 -4 -4
-7 -7 -7 -7 -7 -7 -7 -7 -6 -7 -7 -7 -7 -7 -8 -7 -7 -8 -8 -8 -8 -8 -7 -7 -7 -7 -7 -7 -6 -7 -8 -8 -8 -7 -7 -6 -6 -6 -5 -5 -6 -6 -5 -5 -4
-8 -7 -7 -7 -7 -8 -7 -7 -7 -8 -8 -7 -8 -8 -8 -8 -8 -8 -9 -9 -8 -8 -8 -7 -7 -7 -7 -7 -7 -7 -8 -8 -7 -8 -6 -6 -6 -6 -5 -4 -5 -5 -5 -5 -4
-8 -8 -8 -8 -8 -8 -8 -8 -8 -8 -8 -8 -8 -8 -8 -8 -8 -9 -9 -9 -9 -8 -8 -8 -7 -8 -8 -8 -7 -7 -8 -9 -7 -7 -7 -6 -5 -6 -5 -5 -5 -5 -5 -5 -4
-8 -8 -8 -8 -8 -9 -9 -9 -9 -9 -9 -9 -9 -9 -9 -9 -9 -9 -9 -9 -9 -9 -8 -8 -8 -8 -8 -8 -8 -7 -8 -8 -8 -9 -7 -7 -5 -5 -5 -4 -5 -6 -5 -5 -5
-8 -8 -9 -9 -10 -10 -10 -10 -10 -10 -10 -9 -9 -9 -10 -9 -9 -9 -9 -9 -9 -9 -9 -8 -8 -7 -7 -8 -8 -8 -8 -8 -8 -9 -9 -8 -6 -5 -5 -5 -5 -5 -5 -5 -5
-10 -10 -10 -10 -10 -10 -10 -10 -10 -10 -10 -10 -10 -10 -10 -10 -10 -10 -10 -10 -10 -9 -9 -9 -8 -8 -7 -8 -8 -8 -8 -8 -8 -9 -8 -8 -7 -5 -5 -5 -5 -6 -6 -6 -6
-10 -10 -10 -10 -11 -11 -11 -11 -11 -11 -11 -11 -11 -11 -11 -11 -11 -11 -11 -11 -10 -10 -9 -9 -9 -8 -8 -8 -8 -8 -8 -8 -8 -8 -9 -8 -7 -5 -6 -5 -6 -6 -5 -5 -5
-10 -10 -11 -11 -12 -12 -12 -12 -12 -11 -12 -11 -11 -12 -12 -11 -11 -11 -11 -12 -11 -11 -10 -10 -9 -9 -8 -8 -8 -8 -8 -8 -9 -8 -9 -9 -8 -7 -7 -6 -5 -5 -5 -6 -5
-10 -10 -11 -13 -13 -13 -13 -13 -14 -14 -12 -12 -12 -12 -12 -12 -12 -12 -12 -12 -12 -12 -11 -11 -11 -10 -9 -9 -9 -8 -9 -9 -8 -8 -8 -8 -7 -7 -7 -7 -6 -6 -6 -6 -5
-10 -11 -11 -12 -12 -12 -13 -15 -15 -13 -13 -13 -13 -13 -13 -13 -13 -13 -13 -12 -13 -13 -13 -12 -12 -11 -11 -10 -10 -10 -10 -9 -9 -8 -8 -8 -7 -7 -7 -8 -7 -6 -6 -6 -6
-10 -11 -11 -11 -12 -13 -13 -14 -14 -13 -13 -13 -14 -14 -15 -15 -14 -14 -14 -14 -13 -13 -13 -13 -13 -13 -12 -12 -11 -11 -10 -10 -9 -9 -8 -8 -8 -7 -8 -8 -7 -6 -7 -6 -7
-10 -10 -11 -12 -12 -13 -13 -13 -13 -13 -14 -14 -14 -15 -15 -15 -15 -15 -15 -15 -15 -14 -14 -14 -14 -13 -13 -13 -13 -12 -12 -11 -11 -9 -9 -8 -8 -8 -8 -7 -8 -7 -7 -6 -6
-11 -11 -11 -12 -12 -12 -13 -13 -13 -13 -14 -14 -14 -15 -15 -15 -15 -15 -15 -15 -16 -16 -15 -15 -15 -14 -14 -14 -14 -13 -13 -12 -12 -11 -9 -8 -8 -8 -9 -8 -8 -8 -7 -7 -7
-11 -11 -12 -12 -12 -13 -13 -14 -14 -14 -14 -15 -15 -15 -15 -15 -15 -15 -15 -15 -15 -15 -16 -15 -15 -15 -15 -14 -14 -14 -13 -13 -12 -12 -11 -10 -9 -10 -9 -9 -9 -8 -7 -7 -7
-12 -12 -12 -12 -12 -13 -14 -14 -14 -15 -15 -15 -16 -16 -15 -15 -15 -15 -15 -15 -15 -15 -16 -16 -16 -15 -15 -15 -14 -14 -14 -13 -13 -13 -12 -12 -11 -9 -9 -9 -9 -9 -8 -8 -7
-12 -12 -13 -12 -13 -14 -15 -15 -15 -16 -16 -15 -15 -16 -16 -16 -16 -16 -16 -16 -16 -16 -16 -16 -16 -16 -15 -15 -15 -15 -14 -15 -14 -13 -13 -12 -11 -10 -10 -9 -9 -9 -9 -8 -7
Height
5870 5868 5868 5867 5865 5864 5863 5863 5862 5862 5863 5864 5864 5865 5865 5867 5868 5871 5871 5873 5876 5879 5881 5883 5887 5890 5892 5893 5893 5894 5898 5899 5899 5899 5897 5898 5898 5897 5898 5898 5900 5902 5903 5905 5905
5867 5866 5866 5865 5863 5862 5861 5859 5858 5858 5857 5859 5861 5862 5863 5864 5866 5869 5870 5871 5874 5877 5881 5882 5885 5890 5892 5892 5894 5897 5897 5899 5900 5900 5900 5900 5900 5900 5900 5899 5900 5903 5904 5906 5907
5866 5864 5863 5862 5861 5860 5859 5857 5856 5854 5854 5855 5857 5858 5860 5862 5864 5865 5867 5869 5872 5875 5879 5881 5884 5888 5890 5890 5891 5894 5895 5898 5900 5901 5900 5902 5903 5903 5903 5902 5902 5904 5905 5906 5909
5864 5862 5861 5859 5858 5857 5856 5855 5853 5852 5851 5850 5851 5853 5856 5858 5862 5862 5865 5867 5870 5873 5877 5880 5882 5885 5887 5889 5889 5892 5894 5897 5899 5902 5901 5904 5905 5905 5907 5906 5904 5904 5906 5908 5909
5860 5858 5857 5856 5855 5854 5853 5852 5851 5850 5849 5848 5847 5848 5850 5854 5858 5860 5862 5864 5867 5870 5874 5878 5880 5882 5885 5888 5890 5891 5893 5898 5900 5902 5901 5903 5906 5906 5909 5909 5908 5907 5907 5909 5910
5856 5855 5853 5852 5851 5850 5849 5848 5846 5846 5846 5845 5844 5844 5844 5848 5853 5856 5858 5861 5864 5867 5871 5875 5877 5880 5884 5886 5889 5892 5894 5899 5902 5904 5901 5905 5907 5907 5909 5909 5909 5909 5909 5910 5912
5852 5850 5849 5848 5847 5845 5844 5843 5842 5841 5841 5841 5840 5840 5840 5843 5847 5850 5854 5857 5860 5864 5867 5870 5873 5878 5883 5884 5887 5892 5895 5898 5900 5904 5904 5906 5907 5907 5908 5909 5908 5909 5909 5910 5911
5846 5844 5843 5841 5840 5840 5839 5838 5837 5837 5836 5836 5836 5836 5836 5837 5839 5843 5847 5852 5855 5859 5862 5866 5870 5877 5880 5883 5887 5889 5893 5896 5898 5902 5906 5906 5908 5907 5908 5909 5908 5908 5910 5912 5911
5840 5838 5837 5834 5833 5833 5832 5832 5831 5831 5831 5831 5831 5831 5832 5832 5834 5839 5843 5847 5851 5854 5858 5862 5867 5874 5878 5882 5885 5888 5892 5893 5896 5899 5903 5905 5907 5908 5907 5908 5908 5908 5910 5912 5913
5836 5834 5831 5829 5827 5826 5825 5824 5824 5824 5825 5826 5826 5828 5827 5828 5829 5832 5837 5841 5845 5849 5854 5860 5864 5867 5875 5879 5885 5887 5889 5890 5894 5899 5901 5901 5905 5905 5906 5907 5908 5909 5910 5912 5913
5829 5827 5826 5824 5821 5820 5819 5818 5818 5818 5817 5820 5821 5821 5821 5823 5825 5826 5831 5836 5839 5844 5849 5855 5860 5864 5871 5874 5877 5881 5885 5888 5891 5894 5899 5901 5902 5903 5904 5905 5908 5908 5909 5910 5913
5823 5820 5818 5817 5815 5814 5813 5812 5811 5811 5811 5813 5814 5815 5816 5818 5819 5821 5825 5831 5835 5839 5844 5850 5857 5862 5862 5869 5872 5877 5880 5885 5888 5888 5895 5898 5900 5900 5904 5903 5906 5909 5908 5910 5911
5815 5813 5812 5809 5808 5807 5806 5805 5806 5804 5805 5807 5809 5810 5811 5814 5814 5816 5821 5825 5829 5834 5839 5845 5852 5855 5858 5863 5867 5872 5876 5880 5883 5881 5890 5895 5897 5900 5903 5905 5905 5908 5908 5910 5909
5808 5807 5805 5804 5802 5800 5799 5800 5799 5800 5801 5802 5803 5804 5807 5809 5810 5811 5815 5821 5825 5829 5834 5841 5844 5848 5853 5857 5862 5867 5872 5873 5875 5875 5886 5888 5891 5897 5901 5904 5905 5906 5908 5910 5909
5803 5799 5796 5793 5793 5792 5793 5793 5794 5794 5795 5797 5797 5799 5801 5805 5807 5807 5809 5814 5819 5823 5830 5836 5838 5842 5846 5852 5857 5862 5866 5869 5870 5871 5876 5883 5887 5894 5898 5902 5903 5904 5907 5909 5909
5795 5791 5788 5786 5784 5784 5784 5786 5789 5792 5789 5792 5793 5794 5796 5798 5801 5803 5805 5808 5813 5817 5823 5827 5832 5837 5842 5846 5850 5857 5860 5863 5865 5866 5868 5879 5883 5890 5899 5901 5902 5904 5905 5907 5908
5789 5786 5783 5780 5779 5778 5778 5780 5783 5784 5787 5788 5788 5789 5791 5794 5797 5798 5800 5803 5807 5811 5816 5820 5825 5830 5836 5839 5843 5850 5853 5856 5860 5860 5862 5875 5875 5888 5897 5898 5901 5902 5902 5904 5905
5783 5780 5777 5775 5772 5772 5773 5775 5776 5779 5781 5783 5784 5785 5788 5790 5792 5794 5795 5798 5801 5805 5807 5813 5819 5822 5828 5832 5838 5843 5847 5851 5854 5857 5861 5869 5869 5886 5893 5892 5895 5898 5901 5902 5903
5778 5773 5769 5767 5765 5765 5767 5769 5771 5773 5777 5779 5781 5782 5784 5786 5788 5790 5792 5793 5796 5799 5804 5806 5811 5815 5820 5823 5830 5836 5841 5847 5849 5852 5855 5860 5865 5883 5886 5890 5893 5896 5897 5899 5901
5772 5765 5760 5758 5759 5759 5761 5762 5765 5768 5771 5774 5777 5780 5781 5782 5784 5785 5787 5788 5790 5793 5796 5801 5806 5808 5812 5817 5822 5827 5834 5837 5841 5845 5850 5854 5860 5873 5881 5885 5889 5894 5896 5898 5898
5767 5764 5759 5756 5755 5755 5755 5756 5760 5764 5766 5770 5772 5774 5777 5779 5780 5780 5781 5784 5786 5789 5790 5794 5799 5802 5805 5810 5815 5819 5822 5829 5835 5839 5843 5850 5858 5869 5874 5878 5885 5890 5889 5891 5894
5764 5762 5758 5755 5753 5752 5754 5756 5760 5761 5763 5765 5767 5768 5770 5772 5774 5774 5775 5778 5781 5783 5786 5789 5793 5797 5799 5801 5806 5811 5816 5821 5826 5833 5837 5843 5853 5862 5868 5874 5881 5884 5886 5889 5890
5761 5758 5756 5752 5749 5748 5750 5753 5755 5757 5758 5760 5761 5762 5763 5765 5766 5767 5768 5772 5775 5777 5779 5783 5786 5792 5795 5797 5799 5804 5809 5814 5820 5825 5829 5837 5845 5855 5861 5867 5873 5878 5882 5885 5887
5755 5752 5750 5748 5746 5744 5744 5748 5751 5752 5752 5754 5755 5755 5755 5756 5757 5759 5761 5763 5767 5770 5773 5775 5778 5783 5788 5791 5795 5798 5801 5806 5811 5817 5823 5829 5837 5848 5853 5859 5865 5871 5876 5879 5883
5748 5746 5745 5744 5741 5739 5739 5742 5745 5747 5747 5747 5747 5746 5747 5750 5751 5752 5754 5756 5758 5761 5765 5767 5770 5775 5778 5782 5787 5790 5793 5798 5804 5810 5816 5823 5829 5836 5843 5852 5857 5862 5868 5873 5877
5741 5740 5738 5739 5738 5736 5735 5737 5738 5738 5739 5739 5739 5740 5741 5743 5744 5745 5746 5747 5750 5753 5756 5759 5761 5766 5769 5772 5776 5780 5785 5789 5795 5801 5808 5814 5820 5828 5834 5844 5850 5855 5861 5867 5870
5732 5731 5732 5733 5733 5731 5731 5730 5731 5731 5732 5732 5733 5734 5735 5736 5736 5738 5739 5740 5741 5743 5746 5750 5753 5758 5760 5763 5766 5771 5776 5780 5786 5793 5800 5807 5814 5820 5828 5836 5843 5849 5855 5860 5863
Wind_Speed
16 17 18 17 18 18 17 17 18 19 19 17 15 14 14 14 14 7 10 11 9 9 14 19 14 12 10 11 7 11 5 7 13 10 11 8 13 19 18 18 15 17 17 15 16
13 13 15 17 16 16 17 18 18 19 21 21 19 18 16 15 17 13 12 11 11 10 11 19 17 13 10 12 14 6 7 11 10 14 11 10 14 15 18 17 16 16 17 16 15
17 15 15 16 16 16 17 17 17 17 18 21 23 22 21 19 18 18 16 13 12 10 10 16 20 17 15 13 16 4 14 12 13 8 11 9 11 10 14 15 16 13 15 15 14
19 18 17 16 15 14 13 15 15 16 15 18 21 24 24 23 21 19 20 19 14 13 11 14 22 20 18 16 17 7 19 15 13 14 10 9 8 8 7 10 15 13 12 13 12
18 17 17 18 17 15 13 13 14 16 18 18 18 20 25 26 24 22 21 22 20 16 14 17 24 25 25 19 18 15 19 14 13 16 10 11 8 11 8 8 11 12 9 10 12
17 17 16 17 19 19 17 15 13 16 18 20 20 20 22 26 25 25 23 23 25 22 17 18 23 30 26 21 20 20 20 15 16 14 13 13 14 12 10 9 11 12 10 8 10
20 18 17 18 18 19 17 16 15 18 18 18 18 19 19 23 25 27 27 25 25 27 25 22 24 28 29 27 21 16 17 17 14 19 16 14 14 14 11 9 10 11 10 8 9
22 22 22 20 19 20 18 17 18 18 20 19 18 18 17 18 28 31 31 29 28 29 31 29 26 23 27 30 25 18 23 19 14 11 11 15 13 13 13 8 10 9 8 9 10
19 21 21 20 20 19 16 18 19 20 20 19 18 18 17 16 21 29 30 31 30 30 31 33 28 22 23 25 29 25 16 18 10 13 16 15 16 11 13 8 7 8 6 8 9
23 23 22 22 20 19 18 19 19 19 20 20 17 17 16 17 21 26 31 32 33 32 32 30 31 30 23 23 21 26 21 21 19 13 17 18 20 18 12 8 5 4 6 8 10
28 27 28 27 24 23 22 20 20 20 21 20 18 17 17 16 17 23 32 32 33 34 32 32 31 31 27 24 27 27 29 24 22 21 17 19 21 20 18 10 4 1 4 6 11
31 31 29 28 27 26 24 23 22 21 20 19 18 16 16 17 18 21 30 33 32 34 33 33 29 29 34 31 27 28 30 26 23 29 24 22 24 24 21 15 10 5 3 5 10
29 29 30 29 29 27 26 24 24 21 19 19 17 16 17 17 17 21 27 30 31 32 33 32 31 32 33 35 32 29 29 31 33 34 27 27 27 25 21 15 12 9 7 6 7
29 30 29 29 29 29 27 27 23 23 20 18 18 18 19 18 19 21 26 29 32 31 33 33 32 33 34 34 37 33 32 37 37 35 31 32 30 24 19 15 11 10 10 8 8
28 29 30 30 25 27 27 26 24 21 21 21 19 18 19 20 21 22 23 29 33 34 32 35 37 36 36 33 35 38 35 37 41 38 40 37 35 28 25 18 13 13 13 11 8
27 29 27 25 22 23 25 22 22 21 23 19 18 19 19 21 23 24 24 25 31 35 35 37 40 40 38 36 36 39 39 40 43 46 46 37 40 34 23 18 19 15 13 12 12
26 25 24 21 22 22 23 20 20 21 20 18 19 19 19 20 20 24 25 25 27 32 35 37 39 42 41 40 40 36 44 43 44 47 48 40 42 36 22 27 22 15 19 17 18
29 30 25 22 20 23 22 19 19 20 20 17 19 19 17 17 19 20 22 25 28 30 33 38 39 42 44 43 42 41 43 48 47 48 46 41 44 27 25 30 26 22 22 19 20
32 38 31 27 21 21 21 19 18 19 19 20 20 19 18 19 18 19 20 24 26 30 31 32 36 40 44 47 44 43 43 45 50 50 50 45 42 29 26 28 26 25 24 22 19
31 30 22 17 20 22 23 22 17 18 19 18 19 17 19 21 18 18 18 19 22 27 30 30 29 36 41 46 46 47 45 45 50 53 52 51 47 33 33 27 26 22 20 25 22
27 23 19 14 18 22 19 12 13 20 19 19 19 17 17 19 21 22 22 20 20 21 28 29 28 31 36 42 45 48 48 49 48 53 54 52 47 33 32 26 24 24 26 26 23
28 21 19 17 15 13 11 11 14 18 16 20 20 20 21 23 23 24 25 23 21 22 21 25 28 28 34 37 42 45 48 49 51 50 53 54 50 42 36 29 21 31 27 25 22
28 23 21 19 14 14 14 13 15 17 16 17 20 23 27 27 29 28 30 28 26 26 25 21 23 26 32 34 37 45 48 50 51 53 52 52 51 46 42 37 31 31 28 23 22
28 25 22 20 15 14 16 15 16 17 20 22 23 26 30 29 30 29 27 29 32 32 30 29 25 26 30 36 35 40 52 50 52 51 53 53 51 48 45 44 40 39 33 26 27
26 24 21 20 17 16 17 17 17 18 20 21 25 29 28 27 29 29 30 30 31 34 36 35 32 26 32 36 37 35 40 51 51 52 54 52 49 46 49 46 45 42 42 39 34
21 21 19 19 19 20 21 19 19 19 19 23 25 25 24 25 25 27 31 33 33 34 35 38 36 33 31 36 37 40 36 41 49 49 52 52 48 47 44 47 46 43 41 36 37
21 23 17 18 18 20 19 21 21 22 22 22 22 22 21 22 24 25 26 28 29 32 36 35 38 33 35 34 34 37 42 40 47 49 48 51 51 45 42 41 46 40 39 39 39
Wind_Direction
283 283 286 288 288 293 293 289 288 287 278 268 251 245 247 237 240 235 244 249 237 210 194 196 196 188 202 205 208 163 136 112 106 105 85 86 116 122 110 110 113 112 115 110 109
316 299 288 288 290 294 295 296 297 287 274 268 262 250 242 240 236 227 237 244 245 223 198 198 205 190 201 203 194 168 187 141 110 94 98 98 104 119 122 123 117 118 118 118 115
316 311 302 300 298 300 304 307 306 299 288 275 265 259 247 240 235 231 227 235 239 235 203 200 203 193 200 199 208 258 168 173 138 136 82 94 89 106 129 129 124 120 124 127 123
311 307 303 293 293 296 301 302 308 307 303 288 272 261 255 244 239 236 223 228 233 232 211 194 198 195 205 205 218 205 200 186 204 164 154 96 81 92 115 140 129 126 125 130 126
302 307 297 290 286 292 299 304 297 304 303 300 286 270 257 248 240 236 232 222 228 229 216 199 198 197 205 207 214 192 206 185 187 175 142 104 113 104 124 120 130 127 138 140 138
301 297 304 293 284 287 295 296 291 295 298 298 292 281 267 245 240 236 231 228 221 225 220 202 204 201 205 212 206 204 208 218 197 185 179 149 140 129 142 119 129 135 141 160 142
297 297 297 295 296 290 293 292 291 285 288 295 293 284 276 248 233 234 230 227 226 221 225 217 211 204 204 214 215 203 209 206 192 187 189 166 159 147 143 124 129 138 139 168 169
290 289 295 294 295 290 282 285 287 286 282 288 288 279 274 253 233 230 230 226 225 222 218 224 222 208 208 212 219 229 195 190 188 225 210 186 179 144 145 118 126 118 149 166 185
287 284 287 284 285 282 276 280 280 284 281 281 284 274 264 256 241 230 228 229 226 227 225 223 226 215 214 209 216 221 211 223 223 218 217 183 177 180 157 132 103 112 146 178 188
297 290 283 283 277 270 270 271 272 278 278 275 279 274 257 252 241 230 227 226 228 227 229 224 224 221 214 213 213 216 214 232 227 214 196 188 194 194 189 152 73 82 138 173 189
300 295 289 287 277 272 269 264 265 266 267 272 275 268 260 252 247 242 224 221 226 227 229 227 223 226 213 213 208 205 206 219 237 241 220 203 206 209 195 167 124 65 140 167 179
296 295 298 289 283 276 269 266 260 258 259 260 265 266 260 251 242 238 226 220 221 227 226 226 222 222 222 208 212 204 202 209 229 238 223 208 201 211 206 183 153 160 178 169 184
297 293 290 293 290 276 269 265 264 257 250 251 254 255 251 246 243 234 223 221 220 222 224 224 222 222 223 215 211 208 200 198 205 223 226 214 206 214 214 220 169 171 169 197 176
304 295 296 296 287 277 269 267 262 256 249 240 239 245 249 242 236 236 225 220 222 222 221 218 221 220 223 222 212 213 202 202 216 223 222 222 220 211 209 199 196 187 185 188 169
307 301 298 298 284 273 269 266 259 250 242 236 232 234 237 239 236 229 229 225 223 222 218 220 219 219 219 221 220 212 212 206 216 229 224 222 227 214 208 199 193 205 208 205 204
311 306 303 293 277 268 264 262 258 245 241 240 237 233 232 234 236 234 230 226 224 226 222 218 219 222 222 220 221 217 218 213 213 222 231 224 226 218 218 225 203 218 208 220 209
323 322 309 298 280 269 261 257 248 240 239 238 240 237 236 236 234 235 232 231 226 225 225 221 219 219 222 224 224 217 218 220 218 223 233 222 232 215 224 235 221 209 212 194 207
320 323 306 305 287 269 261 254 242 236 235 233 234 238 240 241 239 243 243 233 230 228 226 223 222 217 216 223 224 219 219 221 223 226 235 229 232 221 219 224 212 223 227 220 213
320 319 309 294 277 263 255 251 244 240 239 233 229 240 243 242 238 239 240 241 235 233 231 221 221 223 217 218 221 221 220 221 225 227 233 234 234 218 219 225 237 231 212 218 222
330 332 324 288 269 258 248 238 233 244 244 238 237 238 237 243 250 248 244 242 239 232 230 227 220 222 223 219 219 220 218 220 223 227 232 235 235 231 222 228 230 222 211 215 212
334 339 346 320 291 277 257 241 243 246 250 254 252 250 246 241 247 252 251 245 245 240 237 231 220 218 222 222 220 218 218 219 223 226 231 236 237 231 222 221 229 202 189 203 203
327 328 335 320 302 281 266 255 254 258 257 257 259 257 257 259 250 253 252 253 248 251 241 241 234 221 217 219 222 221 220 220 222 227 231 234 236 233 230 216 214 197 188 190 200
319 318 317 315 297 274 260 243 237 239 241 248 251 249 253 256 251 250 252 247 247 249 252 246 236 227 222 220 219 217 219 220 222 225 229 233 235 234 234 226 210 208 201 206 210
312 310 305 305 299 276 265 244 236 236 238 235 239 245 251 252 252 249 246 246 240 240 245 250 245 228 222 218 218 219 218 219 222 225 225 230 234 232 234 236 227 216 212 215 240
304 303 298 291 292 285 265 263 254 243 242 243 249 254 255 248 249 256 252 247 247 239 237 243 245 233 224 218 214 215 221 223 225 227 228 229 232 233 233 232 235 236 228 230 236
291 299 295 285 287 278 277 274 263 254 247 254 258 261 260 258 253 252 255 255 251 247 238 238 244 238 241 227 224 219 218 223 223 227 229 231 232 230 235 230 232 237 240 239 235
288 290 283 284 284 277 264 263 264 263 264 259 257 257 256 253 256 257 254 253 253 250 247 242 238 237 228 226 228 226 221 219 222 223 227 231 232 227 227 229 227 228 230 235 236